sat.trackr.live / text

‹ back to catalog

SAUDICOMSAT 4

NORAD 31127 · 2007-012L

PAYLOAD ACTIVE UNKNOWN

§ Identity

Operator
Country
SAUD
Launch date
2007-04-17
Launch site
TYMSC
Launch vehicle
Mass (kg)
RCS (m²)
0.07

External: N2YO · Heavens-Above · Gunter

§ Orbital elements

Epoch: 2026-09-10T03:30:10.157760Z

Period
98.32 min
Inclination
98.4090°
Eccentricity
0.0063250
Mean motion
14.64589291 rev/d
Perigee alt
633.8 km
Apogee alt
723.0 km
Semi-major
7,056.5 km
B*
9.2552e-5
RAAN
227.4926°
Arg perigee
354.2467°
Mean anomaly
5.8002°
Rev number
3,372

§ Raw data

SAUDICOMSAT 41 31127U 07012L   26253.14595090  .00000451  00000+0  92552-4 0  99912 31127  98.4090 227.4926 0063250 354.2467   5.8002 14.64589291 33724

JSON: /api/v1/satellites/31127 · /tle

For live sub-satellite position, see the globe view (requires WebGL).

§ Visibility from observer

Set your observer location to see the next 7 days of passes ≥ 10°. The values pass through the URL so the page stays shareable.

No JS? Fill the form by hand. The geolocation button needs JavaScript.